Time,TemperatureF,DewpointF,PressureIn,WindDirection,WindDirectionDegrees,WindSpeedMPH,WindSpeedGustMPH,Humidity,HourlyPrecipIn,Conditions,Clouds,dailyrainin,SolarRadiationWatts/m^2,SoftwareType,DateUTC
2013-02-20 00:12:00,36.0,34.0,-100.00,SSE,148,1.0,4.0,91,-99.99,,,0.00,0.000000,,2013-02-20 05:12:00,
2013-02-20 01:11:00,35.0,34.0,-100.00,ESE,118,0.0,1.0,95,-99.99,,,0.00,0.000000,,2013-02-20 06:11:00,
2013-02-20 02:11:00,32.0,31.0,-100.00,ESE,107,2.0,2.0,97,-99.99,,,-99.99,0.000000,,2013-02-20 07:11:00,
2013-02-20 03:11:00,32.0,31.0,-100.00,East,96,1.0,2.0,97,-99.99,,,0.00,0.000000,,2013-02-20 08:11:00,
2013-02-20 04:11:00,31.0,30.0,-100.00,East,101,1.0,2.0,97,-99.99,,,0.00,0.000000,,2013-02-20 09:11:00,
2013-02-20 05:12:00,30.0,30.0,-100.00,ENE,75,2.0,3.0,98,-99.99,,,0.00,0.000000,,2013-02-20 10:12:00,
2013-02-20 06:11:00,31.0,30.0,-100.00,NE,45,1.0,8.0,97,-99.99,,,0.00,0.000000,,2013-02-20 11:11:00,
2013-02-20 07:12:00,30.0,29.0,-100.00,NE,43,2.0,4.0,97,-99.99,,,0.00,0.000000,,2013-02-20 12:12:00,
2013-02-20 08:11:00,27.0,26.0,-100.00,East,80,1.0,3.0,96,-99.99,,,0.00,0.000000,,2013-02-20 13:11:00,
2013-02-20 09:11:00,26.0,25.0,-100.00,East,93,2.0,3.0,96,-99.99,,,0.00,0.000000,,2013-02-20 14:11:00,
2013-02-20 10:11:00,24.0,23.0,-100.00,ESE,106,2.0,4.0,94,-99.99,,,0.00,0.000000,,2013-02-20 15:11:00,
2013-02-20 11:11:00,23.0,21.0,-100.00,East,85,2.0,3.0,93,-99.99,,,0.00,12.090000,,2013-02-20 16:11:00,
2013-02-20 12:11:00,28.0,26.0,-100.00,ESE,118,1.0,2.0,93,-99.99,,,-99.99,199.550003,,2013-02-20 17:11:00,
2013-02-20 13:11:00,32.0,24.0,-100.00,East,79,1.0,4.0,72,-99.99,,,0.00,333.320007,,2013-02-20 18:11:00,
2013-02-20 15:11:00,35.0,23.0,-100.00,SSW,205,4.0,5.0,60,-99.99,,,0.00,513.690002,,2013-02-20 20:11:00,
2013-02-20 16:11:00,37.0,23.0,-100.00,SSW,200,4.0,6.0,56,-99.99,,,0.00,539.729980,,2013-02-20 21:11:00,
2013-02-20 17:11:00,39.0,25.0,-100.00,SSW,199,6.0,8.0,55,-99.99,,,0.00,492.420013,,2013-02-20 22:11:00,
2013-02-20 18:12:00,41.0,25.0,-100.00,SW,225,3.0,5.0,54,-99.99,,,0.00,411.299988,,2013-02-20 23:12:00,
2013-02-20 19:11:00,43.0,24.0,-100.00,SSE,160,2.0,6.0,46,-99.99,,,0.00,293.459991,,2013-02-21 00:11:00,
2013-02-20 20:11:00,43.0,25.0,-100.00,SE,130,2.0,4.0,47,-99.99,,,-99.99,169.100006,,2013-02-21 01:11:00,
2013-02-20 21:11:00,40.0,27.0,-100.00,SSE,151,2.0,4.0,59,-99.99,,,0.00,9.410000,,2013-02-21 02:11:00,
2013-02-20 22:12:00,36.0,27.0,-100.00,ESE,114,2.0,4.0,68,-99.99,,,0.00,0.000000,,2013-02-21 03:12:00,
2013-02-20 23:11:00,33.0,26.0,-100.00,SSE,150,2.0,9.0,74,-99.99,,,0.00,0.000000,,2013-02-21 04:11:00,